Time,TemperatureF,DewpointF,PressureIn,WindDirection,WindDirectionDegrees,WindSpeedMPH,WindSpeedGustMPH,Humidity,HourlyPrecipIn,Conditions,Clouds,dailyrainin,SoftwareType,DateUTC
2013-04-15 00:03:00,48.0,44.0,29.83,East,91,1.0,-999.0,87,-99.99,,,-99.99,,2013-04-15 04:03:00,
2013-04-15 00:13:00,48.0,44.0,29.83,East,91,1.0,-999.0,87,-99.99,,,-99.99,,2013-04-15 04:13:00,
2013-04-15 00:23:00,47.0,43.0,29.82,ENE,77,1.0,-999.0,87,-99.99,,,-99.99,,2013-04-15 04:23:00,
2013-04-15 00:33:00,47.0,44.0,29.82,East,95,1.0,-999.0,88,-99.99,,,-99.99,,2013-04-15 04:33:00,
2013-04-15 00:43:00,47.0,44.0,29.82,East,95,1.0,-999.0,88,-99.99,,,-99.99,,2013-04-15 04:43:00,
2013-04-15 00:52:00,47.0,44.0,29.82,East,98,1.0,-999.0,88,-99.99,,,-99.99,,2013-04-15 04:52:00,
2013-04-15 01:03:00,46.0,43.0,29.81,SE,144,1.0,-999.0,88,-99.99,,,-99.99,,2013-04-15 05:03:00,
2013-04-15 01:13:00,46.0,43.0,29.81,SE,144,1.0,-999.0,88,-99.99,,,-99.99,,2013-04-15 05:13:00,
2013-04-15 01:23:00,46.0,43.0,29.81,ESE,123,0.0,-999.0,89,-99.99,,,-99.99,,2013-04-15 05:23:00,
2013-04-15 01:33:00,46.0,43.0,29.82,ESE,107,0.0,-999.0,90,-99.99,,,-99.99,,2013-04-15 05:33:00,
2013-04-15 01:42:00,46.0,43.0,29.82,ESE,107,0.0,-999.0,90,-99.99,,,-99.99,,2013-04-15 05:42:00,
2013-04-15 01:52:00,46.0,43.0,29.82,ESE,117,0.0,-999.0,89,-99.99,,,-99.99,,2013-04-15 05:52:00,
2013-04-15 02:02:00,46.0,43.0,29.81,ESE,109,0.0,-999.0,89,-99.99,,,-99.99,,2013-04-15 06:02:00,
2013-04-15 02:12:00,46.0,43.0,29.81,ESE,109,0.0,-999.0,89,-99.99,,,-99.99,,2013-04-15 06:12:00,
2013-04-15 02:23:00,47.0,44.0,29.81,ESE,115,1.0,-999.0,88,-99.99,,,-99.99,,2013-04-15 06:23:00,
2013-04-15 02:33:00,47.0,43.0,29.82,SE,131,1.0,-999.0,87,-99.99,,,-99.99,,2013-04-15 06:33:00,
2013-04-15 02:41:00,49.0,44.0,29.81,South,174,3.0,-999.0,84,-99.99,,,-99.99,,2013-04-15 06:41:00,
2013-04-15 02:42:00,47.0,43.0,29.82,SE,131,1.0,-999.0,87,-99.99,,,-99.99,,2013-04-15 06:42:00,
2013-04-15 02:52:00,47.0,43.0,29.81,SE,130,1.0,-999.0,87,-99.99,,,-99.99,,2013-04-15 06:52:00,
2013-04-15 03:03:00,49.0,44.0,29.81,South,174,3.0,-999.0,84,-99.99,,,-99.99,,2013-04-15 07:03:00,
2013-04-15 03:42:00,50.0,45.0,29.81,SSE,155,2.0,-999.0,82,-99.99,,,-99.99,,2013-04-15 07:42:00,
2013-04-15 03:43:00,50.0,44.0,29.81,SSE,152,1.0,-999.0,81,-99.99,,,-99.99,,2013-04-15 07:43:00,
2013-04-15 03:53:00,50.0,44.0,29.82,SSE,165,0.0,-999.0,80,-99.99,,,-99.99,,2013-04-15 07:53:00,
2013-04-15 04:03:00,50.0,44.0,29.83,South,175,0.0,-999.0,81,-99.99,,,-99.99,,2013-04-15 08:03:00,
2013-04-15 04:13:00,50.0,44.0,29.83,South,175,0.0,-999.0,81,-99.99,,,-99.99,,2013-04-15 08:13:00,
2013-04-15 04:22:00,49.0,43.0,29.84,South,173,1.0,-999.0,81,-99.99,,,-99.99,,2013-04-15 08:22:00,
2013-04-15 04:34:00,49.0,44.0,29.85,South,173,2.0,-999.0,83,-99.99,,,-99.99,,2013-04-15 08:34:00,
2013-04-15 04:42:00,49.0,44.0,29.85,South,173,2.0,-999.0,83,-99.99,,,-99.99,,2013-04-15 08:42:00,
2013-04-15 04:52:00,49.0,44.0,29.85,South,175,2.0,-999.0,82,-99.99,,,-99.99,,2013-04-15 08:52:00,
2013-04-15 05:03:00,50.0,44.0,29.86,SW,217,4.0,-999.0,81,-99.99,,,-99.99,,2013-04-15 09:03:00,
2013-04-15 05:12:00,50.0,44.0,29.86,SW,217,4.0,-999.0,81,-99.99,,,-99.99,,2013-04-15 09:12:00,
2013-04-15 05:23:00,51.0,45.0,29.87,SSW,207,5.0,-999.0,80,-99.99,,,-99.99,,2013-04-15 09:23:00,
2013-04-15 05:33:00,51.0,45.0,29.87,SSW,207,3.0,-999.0,81,-99.99,,,-99.99,,2013-04-15 09:33:00,
2013-04-15 05:43:00,51.0,45.0,29.87,SSW,207,3.0,-999.0,81,-99.99,,,-99.99,,2013-04-15 09:43:00,
2013-04-15 05:53:00,51.0,45.0,29.87,SSW,196,4.0,-999.0,81,-99.99,,,-99.99,,2013-04-15 09:53:00,
2013-04-15 06:03:00,52.0,46.0,29.87,SSW,196,3.0,-999.0,81,-99.99,,,-99.99,,2013-04-15 10:03:00,
2013-04-15 06:13:00,52.0,46.0,29.87,SSW,196,3.0,-999.0,81,-99.99,,,-99.99,,2013-04-15 10:13:00,
2013-04-15 06:23:00,52.0,46.0,29.87,SSW,196,3.0,-999.0,80,-99.99,,,-99.99,,2013-04-15 10:23:00,
2013-04-15 06:33:00,52.0,46.0,29.86,South,173,1.0,-999.0,80,-99.99,,,-99.99,,2013-04-15 10:33:00,
2013-04-15 06:42:00,52.0,46.0,29.86,South,173,1.0,-999.0,80,-99.99,,,-99.99,,2013-04-15 10:42:00,
2013-04-15 06:52:00,52.0,46.0,29.86,South,173,2.0,-999.0,80,-99.99,,,-99.99,,2013-04-15 10:52:00,
2013-04-15 07:03:00,52.0,46.0,29.86,South,175,2.0,-999.0,81,-99.99,,,-99.99,,2013-04-15 11:03:00,
2013-04-15 07:12:00,52.0,46.0,29.86,South,175,2.0,-999.0,81,-99.99,,,-99.99,,2013-04-15 11:12:00,
2013-04-15 07:23:00,51.0,46.0,29.85,SE,144,3.0,-999.0,82,-99.99,,,-99.99,,2013-04-15 11:23:00,
2013-04-15 07:32:00,52.0,47.0,29.85,SSE,161,6.0,-999.0,82,-99.99,,,-99.99,,2013-04-15 11:32:00,
2013-04-15 07:43:00,52.0,47.0,29.85,SSE,161,6.0,-999.0,82,-99.99,,,-99.99,,2013-04-15 11:43:00,
2013-04-15 07:53:00,52.0,47.0,29.85,SSE,163,4.0,-999.0,83,-99.99,,,-99.99,,2013-04-15 11:53:00,
2013-04-15 08:04:00,51.0,46.0,29.85,SSW,194,4.0,-999.0,83,-99.99,,,-99.99,,2013-04-15 12:04:00,
2013-04-15 08:14:00,51.0,46.0,29.85,SSW,194,4.0,-999.0,83,-99.99,,,-99.99,,2013-04-15 12:14:00,
2013-04-15 08:23:00,51.0,46.0,29.86,SSE,161,3.0,-999.0,84,-99.99,,,-99.99,,2013-04-15 12:23:00,
2013-04-15 08:34:00,52.0,47.0,29.88,SSW,194,5.0,-999.0,84,-99.99,,,-99.99,,2013-04-15 12:34:00,
2013-04-15 08:43:00,52.0,47.0,29.88,SSW,194,5.0,-999.0,84,-99.99,,,-99.99,,2013-04-15 12:43:00,
2013-04-15 08:53:00,52.0,47.0,29.89,SSW,196,4.0,-999.0,84,-99.99,,,-99.99,,2013-04-15 12:53:00,
2013-04-15 09:04:00,53.0,48.0,29.88,SSW,200,5.0,-999.0,83,-99.99,,,-99.99,,2013-04-15 13:04:00,
2013-04-15 09:13:00,53.0,48.0,29.88,SSW,200,5.0,-999.0,83,-99.99,,,-99.99,,2013-04-15 13:13:00,
2013-04-15 09:23:00,54.0,49.0,29.90,South,190,7.0,-999.0,82,-99.99,,,-99.99,,2013-04-15 13:23:00,
2013-04-15 09:34:00,55.0,50.0,29.90,SSW,209,7.0,-999.0,82,-99.99,,,-99.99,,2013-04-15 13:34:00,
2013-04-15 09:43:00,55.0,50.0,29.90,SSW,209,7.0,-999.0,82,-99.99,,,-99.99,,2013-04-15 13:43:00,
2013-04-15 09:53:00,56.0,50.0,29.88,SSW,199,7.0,-999.0,80,-99.99,,,-99.99,,2013-04-15 13:53:00,
2013-04-15 10:05:00,57.0,51.0,29.89,SSW,196,7.0,-999.0,80,-99.99,,,-99.99,,2013-04-15 14:05:00,
2013-04-15 10:13:00,57.0,51.0,29.89,SSW,196,7.0,-999.0,80,-99.99,,,-99.99,,2013-04-15 14:13:00,
2013-04-15 10:22:00,58.0,51.0,29.89,SSW,206,9.0,-999.0,78,-99.99,,,-99.99,,2013-04-15 14:22:00,
2013-04-15 10:34:00,58.0,51.0,29.88,SSW,196,10.0,-999.0,78,-99.99,,,-99.99,,2013-04-15 14:34:00,
2013-04-15 10:44:00,58.0,51.0,29.88,SSW,196,10.0,-999.0,78,-99.99,,,-99.99,,2013-04-15 14:44:00,
2013-04-15 10:54:00,58.0,51.0,29.88,South,182,9.0,-999.0,77,-99.99,,,-99.99,,2013-04-15 14:54:00,
2013-04-15 11:04:00,59.0,52.0,29.89,SSW,200,10.0,-999.0,77,-99.99,,,-99.99,,2013-04-15 15:04:00,
2013-04-15 11:13:00,59.0,52.0,29.89,SSW,200,10.0,-999.0,77,-99.99,,,-99.99,,2013-04-15 15:13:00,
2013-04-15 11:24:00,59.0,52.0,29.89,SSW,195,10.0,-999.0,77,-99.99,,,-99.99,,2013-04-15 15:24:00,
2013-04-15 11:44:00,59.0,52.0,29.89,SSW,197,9.0,-999.0,77,-99.99,,,-99.99,,2013-04-15 15:44:00,
2013-04-15 11:54:00,59.0,52.0,29.89,South,184,11.0,-999.0,77,-99.99,,,-99.99,,2013-04-15 15:54:00,
2013-04-15 12:05:00,59.0,52.0,29.89,South,190,9.0,-999.0,78,-99.99,,,-99.99,,2013-04-15 16:05:00,
2013-04-15 12:14:00,59.0,52.0,29.89,South,190,9.0,-999.0,78,-99.99,,,-99.99,,2013-04-15 16:14:00,
2013-04-15 12:24:00,60.0,53.0,29.89,SSW,213,10.0,-999.0,78,-99.99,,,-99.99,,2013-04-15 16:24:00,
2013-04-15 12:34:00,60.0,53.0,29.88,SSW,213,10.0,-999.0,77,-99.99,,,-99.99,,2013-04-15 16:34:00,
2013-04-15 12:44:00,60.0,53.0,29.88,SSW,213,10.0,-999.0,77,-99.99,,,-99.99,,2013-04-15 16:44:00,
2013-04-15 12:53:00,59.0,52.0,29.89,SSW,197,10.0,-999.0,78,-99.99,,,-99.99,,2013-04-15 16:53:00,
2013-04-15 13:04:00,59.0,52.0,29.88,SSW,198,9.0,-999.0,79,-99.99,,,-99.99,,2013-04-15 17:04:00,
2013-04-15 13:15:00,59.0,52.0,29.88,SSW,198,9.0,-999.0,79,-99.99,,,-99.99,,2013-04-15 17:15:00,
2013-04-15 13:22:00,60.0,53.0,29.89,SSW,205,10.0,-999.0,79,-99.99,,,-99.99,,2013-04-15 17:22:00,
2013-04-15 13:33:00,60.0,53.0,29.88,SSW,193,11.0,-999.0,78,-99.99,,,-99.99,,2013-04-15 17:33:00,
2013-04-15 13:43:00,60.0,53.0,29.88,SSW,193,11.0,-999.0,78,-99.99,,,-99.99,,2013-04-15 17:43:00,
2013-04-15 13:52:00,61.0,54.0,29.87,South,186,10.0,-999.0,79,-99.99,,,-99.99,,2013-04-15 17:52:00,
2013-04-15 14:03:00,61.0,54.0,29.87,SSW,209,12.0,-999.0,79,-99.99,,,-99.99,,2013-04-15 18:03:00,
2013-04-15 14:13:00,61.0,54.0,29.87,SSW,209,12.0,-999.0,79,-99.99,,,-99.99,,2013-04-15 18:13:00,
2013-04-15 14:24:00,61.0,54.0,29.88,South,190,12.0,-999.0,77,-99.99,,,-99.99,,2013-04-15 18:24:00,
2013-04-15 14:33:00,61.0,55.0,29.88,SSW,205,13.0,-999.0,80,-99.99,,,-99.99,,2013-04-15 18:33:00,
2013-04-15 14:42:00,61.0,55.0,29.88,SSW,205,13.0,-999.0,80,-99.99,,,-99.99,,2013-04-15 18:42:00,
2013-04-15 14:52:00,61.0,54.0,29.88,SW,219,12.0,-999.0,78,-99.99,,,-99.99,,2013-04-15 18:52:00,
2013-04-15 15:02:00,61.0,54.0,29.87,SW,222,10.0,-999.0,79,-99.99,,,-99.99,,2013-04-15 19:02:00,
2013-04-15 15:12:00,61.0,54.0,29.87,SW,222,10.0,-999.0,79,-99.99,,,-99.99,,2013-04-15 19:12:00,
2013-04-15 15:22:00,61.0,54.0,29.87,South,190,9.0,-999.0,79,-99.99,,,-99.99,,2013-04-15 19:22:00,
2013-04-15 15:38:00,61.0,54.0,29.86,South,177,9.0,-999.0,79,-99.99,,,-99.99,,2013-04-15 19:38:00,
2013-04-15 15:59:00,62.0,55.0,29.85,South,190,8.0,-999.0,79,-99.99,,,-99.99,,2013-04-15 19:59:00,
2013-04-15 16:02:00,62.0,55.0,29.85,South,179,8.0,-999.0,77,-99.99,,,-99.99,,2013-04-15 20:02:00,
2013-04-15 16:11:00,62.0,55.0,29.85,South,179,8.0,-999.0,77,-99.99,,,-99.99,,2013-04-15 20:11:00,
2013-04-15 16:22:00,62.0,55.0,29.84,SSW,197,10.0,-999.0,79,-99.99,,,-99.99,,2013-04-15 20:22:00,
2013-04-15 16:32:00,63.0,55.0,29.83,South,187,9.0,-999.0,76,-99.99,,,-99.99,,2013-04-15 20:32:00,
2013-04-15 16:42:00,63.0,55.0,29.83,South,187,9.0,-999.0,76,-99.99,,,-99.99,,2013-04-15 20:42:00,
2013-04-15 16:52:00,63.0,55.0,29.84,SSW,194,11.0,-999.0,76,-99.99,,,-99.99,,2013-04-15 20:52:00,
2013-04-15 17:02:00,63.0,56.0,29.84,SSW,194,11.0,-999.0,79,-99.99,,,-99.99,,2013-04-15 21:02:00,
2013-04-15 17:12:00,63.0,56.0,29.84,SSW,194,11.0,-999.0,79,-99.99,,,-99.99,,2013-04-15 21:12:00,
2013-04-15 17:22:00,63.0,56.0,29.85,SW,227,14.0,-999.0,77,-99.99,,,-99.99,,2013-04-15 21:22:00,
2013-04-15 17:33:00,62.0,55.0,29.84,South,171,11.0,-999.0,78,-99.99,,,-99.99,,2013-04-15 21:33:00,
2013-04-15 17:43:00,62.0,55.0,29.84,South,171,11.0,-999.0,78,-99.99,,,-99.99,,2013-04-15 21:43:00,
2013-04-15 17:53:00,62.0,55.0,29.84,SSW,205,8.0,-999.0,77,-99.99,,,-99.99,,2013-04-15 21:53:00,
2013-04-15 18:02:00,63.0,56.0,29.84,SSW,203,8.0,-999.0,77,-99.99,,,-99.99,,2013-04-15 22:02:00,
2013-04-15 18:13:00,63.0,56.0,29.84,SSW,203,8.0,-999.0,77,-99.99,,,-99.99,,2013-04-15 22:13:00,
2013-04-15 18:23:00,63.0,56.0,29.84,SSW,204,7.0,-999.0,77,-99.99,,,-99.99,,2013-04-15 22:23:00,
2013-04-15 18:33:00,63.0,56.0,29.84,SSW,211,7.0,-999.0,77,-99.99,,,-99.99,,2013-04-15 22:33:00,
2013-04-15 18:42:00,63.0,56.0,29.84,SSW,211,7.0,-999.0,77,-99.99,,,-99.99,,2013-04-15 22:42:00,
2013-04-15 18:52:00,63.0,56.0,29.85,SSW,209,8.0,-999.0,77,-99.99,,,-99.99,,2013-04-15 22:52:00,
2013-04-15 19:02:00,63.0,56.0,29.85,SW,215,6.0,-999.0,78,-99.99,,,-99.99,,2013-04-15 23:02:00,
2013-04-15 19:12:00,63.0,56.0,29.85,SW,215,6.0,-999.0,78,-99.99,,,-99.99,,2013-04-15 23:12:00,
2013-04-15 19:22:00,63.0,56.0,29.85,SSW,211,5.0,-999.0,78,-99.99,,,-99.99,,2013-04-15 23:22:00,
2013-04-15 19:32:00,63.0,56.0,29.86,SSW,194,5.0,-999.0,78,-99.99,,,-99.99,,2013-04-15 23:32:00,
2013-04-15 19:42:00,63.0,56.0,29.86,SSW,194,5.0,-999.0,78,-99.99,,,-99.99,,2013-04-15 23:42:00,
2013-04-15 19:52:00,62.0,55.0,29.86,SW,225,6.0,-999.0,78,-99.99,,,-99.99,,2013-04-15 23:52:00,
2013-04-15 20:02:00,62.0,55.0,29.86,SW,219,4.0,-999.0,79,-99.99,,,-99.99,,2013-04-16 00:02:00,
2013-04-15 20:12:00,62.0,55.0,29.86,SW,219,4.0,-999.0,79,-99.99,,,-99.99,,2013-04-16 00:12:00,
2013-04-15 20:22:00,62.0,55.0,29.86,SW,222,1.0,-999.0,79,-99.99,,,-99.99,,2013-04-16 00:22:00,
2013-04-15 20:32:00,61.0,55.0,29.85,SW,222,0.0,-999.0,80,-99.99,,,-99.99,,2013-04-16 00:32:00,
2013-04-15 20:42:00,61.0,55.0,29.85,SW,222,0.0,-999.0,80,-99.99,,,-99.99,,2013-04-16 00:42:00,
2013-04-15 20:52:00,60.0,54.0,29.86,SW,222,0.0,-999.0,82,-99.99,,,-99.99,,2013-04-16 00:52:00,
2013-04-15 21:02:00,60.0,54.0,29.86,SW,222,0.0,-999.0,82,-99.99,,,-99.99,,2013-04-16 01:02:00,
2013-04-15 21:12:00,60.0,55.0,29.88,SW,222,0.0,-999.0,83,-99.99,,,-99.99,,2013-04-16 01:12:00,
2013-04-15 21:22:00,60.0,55.0,29.88,SW,222,0.0,-999.0,83,-99.99,,,-99.99,,2013-04-16 01:22:00,
2013-04-15 21:32:00,60.0,55.0,29.87,SW,222,0.0,-999.0,83,-99.99,,,-99.99,,2013-04-16 01:32:00,
2013-04-15 21:42:00,60.0,55.0,29.87,SW,222,0.0,-999.0,83,-99.99,,,-99.99,,2013-04-16 01:42:00,
2013-04-15 21:52:00,60.0,55.0,29.87,SW,222,0.0,-999.0,84,-99.99,,,-99.99,,2013-04-16 01:52:00,
2013-04-15 22:02:00,59.0,54.0,29.87,SW,222,0.0,-999.0,84,-99.99,,,-99.99,,2013-04-16 02:02:00,
2013-04-15 22:12:00,59.0,54.0,29.87,SW,222,0.0,-999.0,84,-99.99,,,-99.99,,2013-04-16 02:12:00,
2013-04-15 22:22:00,59.0,54.0,29.87,SW,222,0.0,-999.0,85,-99.99,,,-99.99,,2013-04-16 02:22:00,
2013-04-15 22:32:00,58.0,54.0,29.88,SW,222,0.0,-999.0,87,-99.99,,,-99.99,,2013-04-16 02:32:00,
2013-04-15 22:42:00,58.0,54.0,29.88,SW,222,0.0,-999.0,87,-99.99,,,-99.99,,2013-04-16 02:42:00,
2013-04-15 22:52:00,58.0,54.0,29.87,SE,141,3.0,-999.0,87,-99.99,,,-99.99,,2013-04-16 02:52:00,
2013-04-15 23:02:00,58.0,54.0,29.87,SE,139,4.0,-999.0,86,-99.99,,,-99.99,,2013-04-16 03:02:00,
2013-04-15 23:12:00,58.0,54.0,29.87,SE,139,4.0,-999.0,86,-99.99,,,-99.99,,2013-04-16 03:12:00,
2013-04-15 23:22:00,58.0,54.0,29.85,ESE,123,5.0,-999.0,87,-99.99,,,-99.99,,2013-04-16 03:22:00,
2013-04-15 23:33:00,59.0,55.0,29.87,SSE,151,4.0,-999.0,86,-99.99,,,-99.99,,2013-04-16 03:33:00,
2013-04-15 23:43:00,59.0,55.0,29.87,SSE,151,4.0,-999.0,86,-99.99,,,-99.99,,2013-04-16 03:43:00,
2013-04-15 23:52:00,59.0,55.0,29.86,South,176,4.0,-999.0,86,-99.99,,,-99.99,,2013-04-16 03:52:00,